contact:dominique.lefevre@mio.osupytheas.fr, maurice.libes@osupytheas.fr, didier.mallarino@osupytheas.fr
Project:EMSO http://www.emso-fr.org/EMSO-France
Depth: 2436.0 m
Title:EMSO Ligure Ouest : Data MII capteur CSTAR
DateTime,Latitude,Longitude,Instrument_Serial,Reference_Counts,Signal_Counts,Corrected_Signal_raw_counts,Calculated_Beam_c_inverse_meters,Internal_thermistor_counts
DateTime,Latitude,Longitude,Instrument_Serial,Reference_Counts,Signal_Counts,Corrected_Signal_raw_counts,Calculated_Beam_c_inverse_meters,Internal_thermistor_counts
2022-03-24T10:40:06,42.805,6.029,CST-1368DR,4849,5783,12728,0.818,551
2022-03-24T10:43:08,42.805,6.029,CST-1368DR,4848,5784,12732,0.817,551
2022-03-24T10:46:10,42.805,6.029,CST-1368DR,4848,5783,12730,0.817,551
2022-03-24T10:49:11,42.805,6.029,CST-1368DR,4847,5784,12734,0.816,551
2022-03-24T10:52:13,42.805,6.029,CST-1368DR,4847,5782,12730,0.817,551
2022-03-24T10:55:14,42.805,6.029,CST-1368DR,4847,5784,12735,0.816,551
2022-03-24T10:58:16,42.805,6.029,CST-1368DR,4847,5781,12729,0.818,551
2022-03-24T11:01:18,42.805,6.029,CST-1368DR,4847,5782,12731,0.817,551
2022-03-24T11:04:19,42.805,6.029,CST-1368DR,4847,5780,12725,0.819,551
2022-03-24T11:07:21,42.805,6.029,CST-1368DR,4847,5782,12731,0.817,551
2022-03-24T11:10:22,42.805,6.029,CST-1368DR,4847,5785,12737,0.815,551
2022-03-24T11:13:24,42.805,6.029,CST-1368DR,4847,5783,12734,0.816,551
2022-03-24T11:16:25,42.805,6.029,CST-1368DR,4846,5785,12739,0.815,551
2022-03-24T11:19:27,42.805,6.029,CST-1368DR,4846,5781,12731,0.817,551
2022-03-24T11:22:29,42.805,6.029,CST-1368DR,4846,5781,12732,0.817,551
2022-03-24T11:25:30,42.805,6.029,CST-1368DR,4846,5778,12725,0.819,551
2022-03-24T11:28:32,42.805,6.029,CST-1368DR,4846,5780,12728,0.818,551
2022-03-24T11:31:33,42.805,6.029,CST-1368DR,4846,5782,12732,0.817,551
2022-03-24T11:34:35,42.805,6.029,CST-1368DR,4846,5778,12724,0.819,551
2022-03-24T11:37:36,42.805,6.029,CST-1368DR,4846,5779,12726,0.819,551
2022-03-24T11:40:38,42.805,6.029,CST-1368DR,4846,5782,12733,0.816,551
2022-03-24T11:43:40,42.805,6.029,CST-1368DR,4845,5782,12735,0.816,551
2022-03-24T11:46:41,42.805,6.029,CST-1368DR,4845,5778,12726,0.819,551
2022-03-24T11:49:43,42.805,6.029,CST-1368DR,4845,5785,12743,0.813,551
2022-03-24T11:52:44,42.805,6.029,CST-1368DR,4845,5785,12743,0.813,551
2022-03-24T11:55:46,42.805,6.029,CST-1368DR,4845,5784,12740,0.814,551
2022-03-24T11:58:51,42.805,6.029,CST-1368DR,4845,5780,12731,0.817,551
2022-03-24T12:01:52,42.805,6.029,CST-1368DR,4845,5779,12729,0.818,551
2022-03-24T12:04:54,42.805,6.029,CST-1368DR,4845,5778,12727,0.818,551
2022-03-24T12:07:56,42.805,6.029,CST-1368DR,4845,5781,12734,0.816,551
2022-03-24T12:10:57,42.805,6.029,CST-1368DR,4845,5776,12723,0.820,551
2022-03-24T12:13:59,42.805,6.029,CST-1368DR,4845,5777,12725,0.819,551
2022-03-24T12:17:00,42.805,6.029,CST-1368DR,4845,5777,12725,0.819,551
2022-03-24T12:20:02,42.805,6.029,CST-1368DR,4845,5780,12732,0.817,550
2022-03-24T12:23:04,42.805,6.029,CST-1368DR,4845,5781,12733,0.816,551
2022-03-24T12:26:05,42.805,6.029,CST-1368DR,4845,5783,12738,0.815,551
2022-03-24T12:29:07,42.805,6.029,CST-1368DR,4845,5781,12733,0.816,550
2022-03-24T12:32:08,42.805,6.029,CST-1368DR,4844,5783,12740,0.814,551
2022-03-24T12:35:10,42.805,6.029,CST-1368DR,4844,5781,12736,0.815,551
2022-03-24T12:38:11,42.805,6.029,CST-1368DR,4844,5783,12741,0.814,551
2022-03-24T12:41:13,42.805,6.029,CST-1368DR,4844,5783,12740,0.814,551
2022-03-24T12:44:15,42.805,6.029,CST-1368DR,4844,5779,12732,0.817,551
2022-03-24T12:47:16,42.805,6.029,CST-1368DR,4844,5780,12733,0.816,551
2022-03-24T12:50:18,42.805,6.029,CST-1368DR,4844,5785,12746,0.812,551
2022-03-24T12:53:19,42.805,6.029,CST-1368DR,4844,5783,12741,0.814,551
2022-03-24T12:56:21,42.805,6.029,CST-1368DR,4844,5787,12749,0.811,551
2022-03-24T12:59:22,42.805,6.029,CST-1368DR,4844,5786,12747,0.812,551
2022-03-24T13:02:24,42.805,6.029,CST-1368DR,4844,5785,12744,0.813,551
2022-03-24T13:05:26,42.805,6.029,CST-1368DR,4844,5789,12753,0.810,551
2022-03-24T13:08:27,42.805,6.029,CST-1368DR,4844,5787,12750,0.811,551
2022-03-24T13:11:29,42.805,6.029,CST-1368DR,4844,5789,12754,0.810,551
2022-03-24T13:14:30,42.805,6.029,CST-1368DR,4844,5790,12756,0.809,551
2022-03-24T13:17:32,42.805,6.029,CST-1368DR,4844,5786,12746,0.812,551
2022-03-24T13:20:34,42.805,6.029,CST-1368DR,4844,5790,12755,0.809,551
2022-03-24T13:23:35,42.805,6.029,CST-1368DR,4844,5790,12757,0.809,551
2022-03-24T13:26:37,42.805,6.029,CST-1368DR,4844,5790,12755,0.809,551
2022-03-24T13:29:38,42.805,6.029,CST-1368DR,4844,5791,12758,0.809,551
2022-03-24T13:32:40,42.805,6.029,CST-1368DR,4843,5788,12754,0.810,551
2022-03-24T13:35:41,42.805,6.029,CST-1368DR,4843,5792,12764,0.807,551
2022-03-24T13:38:43,42.805,6.029,CST-1368DR,4843,5788,12755,0.809,551
2022-03-24T13:41:45,42.805,6.029,CST-1368DR,4843,5788,12754,0.810,551
2022-03-24T13:44:46,42.805,6.029,CST-1368DR,4843,5787,12753,0.810,551
2022-03-24T13:47:48,42.805,6.029,CST-1368DR,4843,5788,12755,0.809,551
2022-03-24T13:50:49,42.805,6.029,CST-1368DR,4843,5789,12756,0.809,551
2022-03-24T13:53:51,42.805,6.029,CST-1368DR,4843,5789,12755,0.809,551
2022-03-24T13:56:52,42.805,6.029,CST-1368DR,4843,5790,12757,0.809,551
2022-03-24T13:59:54,42.805,6.029,CST-1368DR,4843,5782,12740,0.814,551
2022-03-24T14:02:56,42.805,6.029,CST-1368DR,4843,5780,12737,0.815,551
2022-03-24T14:05:57,42.805,6.029,CST-1368DR,4843,5786,12750,0.811,551
2022-03-24T14:08:59,42.805,6.029,CST-1368DR,4843,5784,12744,0.813,551
2022-03-24T14:12:00,42.805,6.029,CST-1368DR,4843,5784,12744,0.813,551
2022-03-24T14:15:02,42.805,6.029,CST-1368DR,4843,5768,12710,0.824,551
2022-03-24T14:18:04,42.805,6.029,CST-1368DR,4843,5778,12732,0.817,551
2022-03-24T14:21:05,42.805,6.029,CST-1368DR,4842,5755,12684,0.832,551
2022-03-24T14:24:07,42.805,6.029,CST-1368DR,4843,5780,12736,0.815,551
2022-03-24T14:27:08,42.805,6.029,CST-1368DR,4842,5778,12735,0.816,551
2022-03-24T14:30:10,42.805,6.029,CST-1368DR,4842,5782,12743,0.813,551
2022-03-24T14:33:11,42.805,6.029,CST-1368DR,4842,5781,12741,0.814,551
2022-03-24T14:36:13,42.805,6.029,CST-1368DR,4842,5782,12743,0.813,551
2022-03-24T14:39:15,42.805,6.029,CST-1368DR,4842,5781,12740,0.814,551
2022-03-24T14:42:16,42.805,6.029,CST-1368DR,4842,5781,12741,0.814,551
2022-03-24T14:45:18,42.805,6.029,CST-1368DR,4842,5780,12739,0.815,551
2022-03-24T14:48:19,42.805,6.029,CST-1368DR,4842,5782,12742,0.814,551
2022-03-24T14:51:21,42.805,6.029,CST-1368DR,4842,5779,12736,0.815,551
2022-03-24T14:54:22,42.805,6.029,CST-1368DR,4842,5782,12743,0.813,551
2022-03-24T14:57:24,42.805,6.029,CST-1368DR,4842,5779,12736,0.815,551
2022-03-24T15:00:26,42.805,6.029,CST-1368DR,4842,5780,12739,0.815,551
2022-03-24T15:03:27,42.805,6.029,CST-1368DR,4842,5782,12744,0.813,551
2022-03-24T15:06:29,42.805,6.029,CST-1368DR,4842,5778,12734,0.816,550
2022-03-24T15:09:30,42.805,6.029,CST-1368DR,4842,5778,12734,0.816,551
2022-03-24T15:12:32,42.805,6.029,CST-1368DR,4842,5770,12716,0.822,551
2022-03-24T15:15:34,42.805,6.029,CST-1368DR,4842,5778,12735,0.816,551
2022-03-24T15:18:35,42.805,6.029,CST-1368DR,4842,5782,12744,0.813,551
2022-03-24T15:21:37,42.805,6.029,CST-1368DR,4842,5779,12736,0.815,551
2022-03-24T15:24:38,42.805,6.029,CST-1368DR,4842,5782,12743,0.813,551
2022-03-24T15:27:40,42.805,6.029,CST-1368DR,4842,5779,12737,0.815,551
2022-03-24T15:30:41,42.805,6.029,CST-1368DR,4842,5774,12725,0.819,551
2022-03-24T15:33:43,42.805,6.029,CST-1368DR,4841,5776,12732,0.817,551
2022-03-24T15:36:45,42.805,6.029,CST-1368DR,4841,5778,12737,0.815,551
2022-03-24T15:39:46,42.805,6.029,CST-1368DR,4841,5776,12733,0.816,551
2022-03-24T15:42:48,42.805,6.029,CST-1368DR,4841,5776,12733,0.816,551
2022-03-24T15:45:49,42.805,6.029,CST-1368DR,4841,5772,12724,0.819,551
2022-03-24T15:48:51,42.805,6.029,CST-1368DR,4841,5778,12737,0.815,551
2022-03-24T15:51:52,42.805,6.029,CST-1368DR,4841,5782,12745,0.813,551
2022-03-24T15:54:54,42.805,6.029,CST-1368DR,4841,5780,12741,0.814,551
2022-03-24T15:57:56,42.805,6.029,CST-1368DR,4841,5777,12735,0.816,551
2022-03-24T16:00:57,42.805,6.029,CST-1368DR,4841,5780,12741,0.814,551
2022-03-24T16:03:59,42.805,6.029,CST-1368DR,4841,5779,12739,0.815,551
2022-03-24T16:07:00,42.805,6.029,CST-1368DR,4841,5779,12739,0.815,551
2022-03-24T16:10:02,42.805,6.029,CST-1368DR,4841,5778,12738,0.815,551
2022-03-24T16:13:04,42.805,6.029,CST-1368DR,4841,5780,12741,0.814,551
2022-03-24T16:16:05,42.805,6.029,CST-1368DR,4841,5779,12740,0.814,551
2022-03-24T16:19:07,42.805,6.029,CST-1368DR,4841,5779,12739,0.815,551
2022-03-24T16:22:08,42.805,6.029,CST-1368DR,4841,5779,12738,0.815,551
2022-03-24T16:25:10,42.805,6.029,CST-1368DR,4841,5779,12738,0.815,551
2022-03-24T16:28:11,42.805,6.029,CST-1368DR,4841,5779,12738,0.815,551
2022-03-24T16:31:13,42.805,6.029,CST-1368DR,4841,5779,12740,0.814,551
2022-03-24T16:34:15,42.805,6.029,CST-1368DR,4841,5779,12738,0.815,551
2022-03-24T16:37:16,42.805,6.029,CST-1368DR,4841,5780,12741,0.814,551
2022-03-24T16:40:18,42.805,6.029,CST-1368DR,4841,5779,12740,0.814,551
2022-03-24T16:43:19,42.805,6.029,CST-1368DR,4841,5780,12740,0.814,551
2022-03-24T16:46:21,42.805,6.029,CST-1368DR,4841,5782,12745,0.813,551
2022-03-24T16:49:22,42.805,6.029,CST-1368DR,4840,5780,12743,0.813,551
2022-03-24T16:52:24,42.805,6.029,CST-1368DR,4840,5780,12744,0.813,551
2022-03-24T16:55:26,42.805,6.029,CST-1368DR,4840,5781,12746,0.812,550
2022-03-24T16:58:27,42.805,6.029,CST-1368DR,4840,5781,12747,0.812,551
2022-03-24T17:01:29,42.805,6.029,CST-1368DR,4840,5782,12748,0.812,551
2022-03-24T17:04:30,42.805,6.029,CST-1368DR,4840,5780,12744,0.813,551
2022-03-24T17:07:32,42.805,6.029,CST-1368DR,4840,5780,12744,0.813,551
2022-03-24T17:10:34,42.805,6.029,CST-1368DR,4840,5781,12747,0.812,551
2022-03-24T17:13:35,42.805,6.029,CST-1368DR,4840,5787,12759,0.808,551
2022-03-24T17:16:37,42.805,6.029,CST-1368DR,4840,5783,12751,0.811,551
2022-03-24T17:19:38,42.805,6.029,CST-1368DR,4840,5785,12756,0.809,551
2022-03-24T17:22:40,42.805,6.029,CST-1368DR,4840,5783,12750,0.811,551
2022-03-24T17:25:41,42.805,6.029,CST-1368DR,4840,5787,12758,0.809,551
2022-03-24T17:28:43,42.805,6.029,CST-1368DR,4840,5785,12754,0.810,551
2022-03-24T17:31:45,42.805,6.029,CST-1368DR,4840,5783,12751,0.811,551
2022-03-24T17:34:46,42.805,6.029,CST-1368DR,4840,5784,12752,0.810,551
2022-03-24T17:37:48,42.805,6.029,CST-1368DR,4840,5783,12751,0.811,551
2022-03-24T17:40:49,42.805,6.029,CST-1368DR,4840,5784,12752,0.810,551
2022-03-24T17:43:51,42.805,6.029,CST-1368DR,4840,5786,12756,0.809,550
2022-03-24T17:46:53,42.805,6.029,CST-1368DR,4840,5782,12748,0.812,551
2022-03-24T17:49:54,42.805,6.029,CST-1368DR,4840,5783,12750,0.811,550
2022-03-24T17:52:56,42.805,6.029,CST-1368DR,4840,5783,12750,0.811,551
2022-03-24T17:55:57,42.805,6.029,CST-1368DR,4840,5780,12745,0.813,551
2022-03-24T17:58:59,42.805,6.029,CST-1368DR,4840,5782,12749,0.811,551
2022-03-24T18:02:00,42.805,6.029,CST-1368DR,4840,5783,12751,0.811,551
2022-03-24T18:05:02,42.805,6.029,CST-1368DR,4840,5782,12749,0.811,551
2022-03-24T18:08:04,42.805,6.029,CST-1368DR,4840,5785,12754,0.810,551
2022-03-24T18:11:05,42.805,6.029,CST-1368DR,4840,5783,12751,0.811,551
2022-03-24T18:14:07,42.805,6.029,CST-1368DR,4840,5784,12753,0.810,551
2022-03-24T18:17:08,42.805,6.029,CST-1368DR,4840,5782,12748,0.812,551
2022-03-24T18:20:10,42.805,6.029,CST-1368DR,4840,5783,12751,0.811,551
2022-03-24T18:23:11,42.805,6.029,CST-1368DR,4840,5785,12754,0.810,551
2022-03-24T18:26:13,42.805,6.029,CST-1368DR,4840,5784,12752,0.810,551
2022-03-24T18:29:15,42.805,6.029,CST-1368DR,4840,5783,12751,0.811,550
2022-03-24T18:32:16,42.805,6.029,CST-1368DR,4840,5784,12752,0.810,551
2022-03-24T18:35:18,42.805,6.029,CST-1368DR,4840,5784,12752,0.810,551
2022-03-24T18:38:19,42.805,6.029,CST-1368DR,4839,5785,12758,0.809,551
2022-03-24T18:41:21,42.805,6.029,CST-1368DR,4839,5787,12761,0.808,551
2022-03-24T18:44:23,42.805,6.029,CST-1368DR,4839,5787,12761,0.808,551
2022-03-24T18:47:24,42.805,6.029,CST-1368DR,4839,5785,12757,0.809,551
2022-03-24T18:50:26,42.805,6.029,CST-1368DR,4839,5787,12761,0.808,551
2022-03-24T18:53:27,42.805,6.029,CST-1368DR,4839,5785,12758,0.809,551
2022-03-24T18:56:29,42.805,6.029,CST-1368DR,4839,5785,12757,0.809,551
2022-03-24T18:59:30,42.805,6.029,CST-1368DR,4839,5787,12761,0.808,551
2022-03-24T19:02:32,42.805,6.029,CST-1368DR,4839,5785,12758,0.809,551
2022-03-24T19:05:34,42.805,6.029,CST-1368DR,4839,5787,12761,0.808,550
2022-03-24T19:08:35,42.805,6.029,CST-1368DR,4839,5786,12759,0.808,551
2022-03-24T19:11:37,42.805,6.029,CST-1368DR,4839,5785,12758,0.809,551
2022-03-24T19:14:38,42.805,6.029,CST-1368DR,4839,5785,12758,0.809,550
2022-03-24T19:17:40,42.805,6.029,CST-1368DR,4839,5786,12759,0.808,551
2022-03-24T19:20:42,42.805,6.029,CST-1368DR,4839,5784,12755,0.809,551
2022-03-24T19:23:43,42.805,6.029,CST-1368DR,4839,5784,12756,0.809,551
2022-03-24T19:26:45,42.805,6.029,CST-1368DR,4839,5784,12755,0.809,551
2022-03-24T19:29:46,42.805,6.029,CST-1368DR,4839,5785,12757,0.809,551
2022-03-24T19:32:48,42.805,6.029,CST-1368DR,4839,5786,12760,0.808,551
2022-03-24T19:35:49,42.805,6.029,CST-1368DR,4839,5783,12753,0.810,551
2022-03-24T19:38:51,42.805,6.029,CST-1368DR,4839,5785,12758,0.809,550
2022-03-24T19:41:53,42.805,6.029,CST-1368DR,4839,5784,12756,0.809,551
2022-03-24T19:44:54,42.805,6.029,CST-1368DR,4839,5785,12757,0.809,551
2022-03-24T19:47:56,42.805,6.029,CST-1368DR,4839,5785,12758,0.809,551
2022-03-24T19:50:57,42.805,6.029,CST-1368DR,4839,5785,12757,0.809,551
2022-03-24T19:53:59,42.805,6.029,CST-1368DR,4838,5783,12755,0.809,551
2022-03-24T19:57:00,42.805,6.029,CST-1368DR,4838,5782,12754,0.810,551
2022-03-24T20:00:02,42.805,6.029,CST-1368DR,4838,5786,12761,0.808,551
2022-03-24T20:03:04,42.805,6.029,CST-1368DR,4838,5785,12759,0.808,551
2022-03-24T20:06:05,42.805,6.029,CST-1368DR,4839,5787,12761,0.808,551
2022-03-24T20:09:07,42.805,6.029,CST-1368DR,4838,5785,12759,0.808,551
2022-03-24T20:12:08,42.805,6.029,CST-1368DR,4838,5784,12758,0.809,551
2022-03-24T20:15:10,42.805,6.029,CST-1368DR,4838,5782,12754,0.810,551
2022-03-24T20:18:12,42.805,6.029,CST-1368DR,4838,5785,12759,0.808,551
2022-03-24T20:21:13,42.805,6.029,CST-1368DR,4838,5784,12757,0.809,550
2022-03-24T20:24:15,42.805,6.029,CST-1368DR,4838,5785,12761,0.808,551
2022-03-24T20:27:16,42.805,6.029,CST-1368DR,4838,5785,12761,0.808,551
2022-03-24T20:30:18,42.805,6.029,CST-1368DR,4838,5785,12759,0.808,550
2022-03-24T20:33:19,42.805,6.029,CST-1368DR,4838,5785,12760,0.808,551
2022-03-24T20:36:21,42.805,6.029,CST-1368DR,4838,5783,12756,0.809,551
2022-03-24T20:39:23,42.805,6.029,CST-1368DR,4838,5786,12761,0.808,551
2022-03-24T20:42:24,42.805,6.029,CST-1368DR,4838,5784,12758,0.809,551
2022-03-24T20:45:26,42.805,6.029,CST-1368DR,4838,5787,12764,0.807,551
2022-03-24T20:48:27,42.805,6.029,CST-1368DR,4838,5780,12749,0.811,551
2022-03-24T20:51:29,42.805,6.029,CST-1368DR,4838,5787,12763,0.807,551
2022-03-24T20:54:30,42.805,6.029,CST-1368DR,4838,5787,12765,0.806,551
2022-03-24T20:57:32,42.805,6.029,CST-1368DR,4838,5783,12756,0.809,551
2022-03-24T21:00:34,42.805,6.029,CST-1368DR,4838,5785,12760,0.808,551
2022-03-24T21:03:35,42.805,6.029,CST-1368DR,4838,5783,12755,0.809,551
2022-03-24T21:06:37,42.805,6.029,CST-1368DR,4838,5785,12760,0.808,551
2022-03-24T21:09:38,42.805,6.029,CST-1368DR,4838,5783,12755,0.809,551
2022-03-24T21:12:40,42.805,6.029,CST-1368DR,4838,5783,12755,0.809,551
2022-03-24T21:15:42,42.805,6.029,CST-1368DR,4838,5781,12752,0.810,551
2022-03-24T21:18:43,42.805,6.029,CST-1368DR,4838,5779,12747,0.812,551
2022-03-24T21:21:45,42.805,6.029,CST-1368DR,4837,5781,12754,0.810,551
2022-03-24T21:24:46,42.805,6.029,CST-1368DR,4837,5780,12751,0.811,551
2022-03-24T21:27:48,42.805,6.029,CST-1368DR,4838,5780,12748,0.812,551
2022-03-24T21:30:49,42.805,6.029,CST-1368DR,4837,5779,12749,0.811,551
2022-03-24T21:33:51,42.805,6.029,CST-1368DR,4837,5780,12751,0.811,551
2022-03-24T21:36:53,42.805,6.029,CST-1368DR,4837,5780,12751,0.811,551
2022-03-24T21:39:54,42.805,6.029,CST-1368DR,4837,5779,12749,0.811,551
2022-03-24T21:42:56,42.805,6.029,CST-1368DR,4837,5779,12750,0.811,551
2022-03-24T21:45:57,42.805,6.029,CST-1368DR,4837,5772,12735,0.816,551
2022-03-24T21:48:59,42.805,6.029,CST-1368DR,4838,5781,12750,0.811,551
2022-03-24T21:52:00,42.805,6.029,CST-1368DR,4837,5782,12755,0.809,551
2022-03-24T21:55:02,42.805,6.029,CST-1368DR,4837,5780,12751,0.811,551
2022-03-24T21:58:04,42.805,6.029,CST-1368DR,4837,5781,12753,0.810,551
2022-03-24T22:01:05,42.805,6.029,CST-1368DR,4837,5780,12751,0.811,551
2022-03-24T22:04:07,42.805,6.029,CST-1368DR,4837,5776,12743,0.813,551
2022-03-24T22:07:08,42.805,6.029,CST-1368DR,4837,5777,12744,0.813,551
2022-03-24T22:10:10,42.805,6.029,CST-1368DR,4837,5779,12748,0.812,551
2022-03-24T22:13:12,42.805,6.029,CST-1368DR,4837,5776,12742,0.814,551
2022-03-24T22:16:13,42.805,6.029,CST-1368DR,4837,5776,12742,0.814,551
2022-03-24T22:19:15,42.805,6.029,CST-1368DR,4837,5775,12739,0.815,551
2022-03-24T22:22:16,42.805,6.029,CST-1368DR,4837,5765,12717,0.821,551
2022-03-24T22:25:18,42.805,6.029,CST-1368DR,4837,5777,12744,0.813,550
2022-03-24T22:28:19,42.805,6.029,CST-1368DR,4837,5772,12733,0.816,551
2022-03-24T22:31:21,42.805,6.029,CST-1368DR,4837,5783,12757,0.809,551
2022-03-24T22:34:23,42.805,6.029,CST-1368DR,4837,5775,12740,0.814,551
2022-03-24T22:37:24,42.805,6.029,CST-1368DR,4837,5772,12734,0.816,551
2022-03-24T22:40:26,42.805,6.029,CST-1368DR,4837,5773,12736,0.815,551
2022-03-24T22:43:27,42.805,6.029,CST-1368DR,4838,5804,12801,0.795,551
2022-03-24T22:46:29,42.805,6.029,CST-1368DR,4837,5780,12751,0.811,551
2022-03-24T22:49:30,42.805,6.029,CST-1368DR,4837,5775,12740,0.814,551
2022-03-24T22:52:32,42.805,6.029,CST-1368DR,4837,5778,12747,0.812,551
2022-03-24T22:55:34,42.805,6.029,CST-1368DR,4837,5779,12749,0.811,551
2022-03-24T22:58:35,42.805,6.029,CST-1368DR,4837,5779,12748,0.812,550
2022-03-24T23:01:37,42.805,6.029,CST-1368DR,4837,5777,12745,0.813,551
2022-03-24T23:04:38,42.805,6.029,CST-1368DR,4838,5781,12752,0.810,551
2022-03-24T23:07:40,42.805,6.029,CST-1368DR,4837,5780,12751,0.811,551
2022-03-24T23:10:42,42.805,6.029,CST-1368DR,4838,5780,12749,0.811,551
2022-03-24T23:13:43,42.805,6.029,CST-1368DR,4837,5780,12751,0.811,551
2022-03-24T23:16:45,42.805,6.029,CST-1368DR,4837,5778,12747,0.812,550
2022-03-24T23:19:46,42.805,6.029,CST-1368DR,4837,5777,12744,0.813,551
2022-03-24T23:22:48,42.805,6.029,CST-1368DR,4837,5776,12742,0.814,551
2022-03-24T23:25:49,42.805,6.029,CST-1368DR,4837,5768,12725,0.819,551
2022-03-24T23:28:51,42.805,6.029,CST-1368DR,4837,5771,12732,0.817,551
2022-03-24T23:31:53,42.805,6.029,CST-1368DR,4837,5775,12741,0.814,551
2022-03-24T23:34:54,42.805,6.029,CST-1368DR,4837,5776,12742,0.814,551
2022-03-24T23:37:56,42.805,6.029,CST-1368DR,4837,5776,12742,0.814,551
2022-03-24T23:40:57,42.805,6.029,CST-1368DR,4837,5775,12741,0.814,551
2022-03-24T23:43:59,42.805,6.029,CST-1368DR,4837,5773,12736,0.815,551
2022-03-24T23:47:00,42.805,6.029,CST-1368DR,4837,5774,12738,0.815,551
2022-03-24T23:50:02,42.805,6.029,CST-1368DR,4837,5775,12739,0.815,551
2022-03-24T23:53:04,42.805,6.029,CST-1368DR,4837,5774,12738,0.815,551
2022-03-24T23:56:05,42.805,6.029,CST-1368DR,4837,5772,12733,0.816,551
2022-03-24T23:59:07,42.805,6.029,CST-1368DR,4837,5771,12731,0.817,551
